Content
SEND FEEDBACK

Daily
Averages
Monthly
Summary
Indonesia

HASANUDIN, INDONESIA


Home > Asia > Indonesia
Elevation: 46 feet     Latitude: 05 04S     Longitude: 119 33E

WEATHER
 
SELECT A DAY
Number of Records: 196,487;   Date Range: 9/17/97 - 8/31/14
 
SHARE

PRINT THIS DATA

[ ← Previous Day ]
WEATHER ALMANAC - AUGUST 21, 2013
[ Next Day → ]
[ °C ]   °F
Weather ElementAverageHighLow
Temperature75.6 °F93.2 °F (1:00 pm) (4:00 am)
Dewpoint61.5 °F69.8 °F (8:30 am) (7:00 pm)
Humidity62.4 %100 % (6:30 am)34 % (2:00 pm)
Barometer29.84 in29.91 in (8:00 am)29.74 in (3:30 pm)
Wind Speed4 mph9.2 mph (2:00 pm)
Weather ElementAverage
Visibility5.7 mi
Wind DirectionSSE (148.9 °)

Weather ElementTotal
Precipitation---
Heating Degree Days18.4 (Base 65)
Averaged from 55 records on August 21, 2013
WEATHER CONDITIONS BREAKOUT
WIND DIRECTION BREAKOUT
WEATHER BY HOUR - AUGUST 21, 2013
[ °C ]   °F
Local TimeTemperatureDewpointHumidityBarometerVisibilityWind DirectionWind SpeedGust SpeedPrecipitationEventsConditions
12:30 AM71.6 °F66.2 °F83 %29.89 in5.0 miSE (130°)1.2 mphPartly Cloudy
1:00 AM71.6 °F66.2 °F83 %29.86 in5.0 miSouth (180°)1.2 mphPartly Cloudy
1:30 AM69.8 °F66.2 °F88 %29.86 in5.0 miEast (90°)2.3 mphPartly Cloudy
2:00 AM70.0 °F65.0 °F80 %29.86 in5.0 miEast (100°)2.3 mphScattered Clouds
2:00 AM69.8 °F64.4 °F83 %29.86 in5.0 miEast (100°)2.3 mphPartly Cloudy
2:30 AM69.8 °F64.4 °F83 %29.86 in5.0 miSSE (150°)2.3 mphPartly Cloudy
3:00 AM69.8 °F64.4 °F83 %29.86 in5.0 miNNW (330°)2.3 mphPartly Cloudy
3:30 AM68.0 °F64.4 °F88 %29.86 in5.0 miCalmPartly Cloudy
4:00 AM0.0 °F0.0 °F29.83 inNorthPartly Cloudy
4:30 AM0.0 °F0.0 °F29.86 inNorth
5:00 AM68.0 °F64.0 °F85 %29.86 in5.0 miESE (120°)3.5 mphScattered Clouds
5:00 AM68.0 °F64.4 °F88 %29.86 in5.0 miESE (120°)3.5 mphPartly Cloudy
5:30 AM68.0 °F64.4 °F88 %29.86 in5.0 miCalmPartly Cloudy
6:00 AM66.2 °F62.6 °F88 %29.86 in5.0 miCalmPartly Cloudy
6:30 AM66.2 °F66.2 °F100 %29.89 in5.0 miSE (130°)2.3 mphPartly Cloudy
7:00 AM68.0 °F66.2 °F94 %29.89 in6.2 miCalmPartly Cloudy
7:30 AM69.8 °F66.2 °F88 %29.89 in6.2 miCalmPartly Cloudy
8:00 AM72.0 °F68.0 °F83 %29.91 in6.0 miSSE (150°)2.3 mphScattered Clouds
8:00 AM71.6 °F68.0 °F88 %29.89 in6.2 miSSE (150°)2.3 mphPartly Cloudy
8:30 AM77.0 °F69.8 °F78 %29.89 in6.2 miVariable2.3 mphPartly Cloudy
9:00 AM80.6 °F66.2 °F61 %29.89 in6.2 miSouth (180°)3.5 mphPartly Cloudy
9:30 AM80.6 °F66.2 °F61 %29.89 in6.2 miSSE (150°)2.3 mphPartly Cloudy
10:00 AM84.2 °F68.0 °F58 %29.89 in6.2 miSE (140°)3.5 mphPartly Cloudy
10:30 AM86.0 °F68.0 °F55 %29.89 in6.2 miVariable2.3 mphPartly Cloudy
11:00 AM88.0 °F66.0 °F39 %29.88 in6.0 miSSE (160°)1.2 mphScattered Clouds
11:00 AM87.8 °F66.2 °F49 %29.86 in6.2 miVariable1.2 mphPartly Cloudy
11:30 AM0.0 °F0.0 °F29.86 in6.2 miSouth (170°)3.5 mphPartly Cloudy
12:00 PM91.4 °F60.8 °F36 %29.83 in6.2 miSouth (170°)4.6 mphPartly Cloudy
12:30 PM91.4 °F62.6 °F38 %29.83 in6.2 miEast (100°)3.5 mphPartly Cloudy
1:00 PM93.2 °F62.6 °F36 %29.83 in6.2 miWSW (240°)3.5 mphPartly Cloudy
1:30 PM89.6 °F68.0 °F49 %29.80 in6.2 miWNW (290°)8.1 mphPartly Cloudy
2:00 PM92.0 °F67.0 °F34 %29.80 in7.0 miWNW (290°)9.2 mphScattered Clouds
2:00 PM91.4 °F66.2 °F43 %29.77 in6.2 miWNW (290°)9.2 mphPartly Cloudy
2:30 PM93.2 °F66.2 °F41 %29.77 in6.2 miWNW (300°)5.8 mphPartly Cloudy
3:00 PM93.2 °F64.4 °F38 %29.77 in6.2 miVariable4.6 mphPartly Cloudy
3:30 PM93.2 °F66.2 °F41 %29.74 in6.2 miNNW (330°)5.8 mphPartly Cloudy
4:00 PM89.6 °F66.2 °F46 %29.74 in6.2 miNW (320°)8.1 mphPartly Cloudy
4:30 PM89.6 °F68.0 °F49 %29.74 in6.2 miWNW (290°)6.9 mphPartly Cloudy
5:00 PM89.0 °F67.0 °F38 %29.78 in6.0 miNW (320°)6.9 mphScattered Clouds
5:00 PM89.6 °F68.0 °F49 %29.77 in5.6 miNW (310°)8.1 mphPartly Cloudy
5:30 PM87.8 °F68.0 °F52 %29.77 in5.6 miNW (320°)4.6 mphPartly Cloudy
6:00 PM87.8 °F68.0 °F52 %29.77 in5.6 miNNW (340°)4.6 mphPartly Cloudy
6:30 PM86.0 °F64.4 °F48 %29.77 in5.6 miNorth (350°)8.1 mphPartly Cloudy
7:00 PM84.2 °F62.6 °F48 %29.80 in5.6 miNorth (360°)6.9 mphPartly Cloudy
7:30 PM84.2 °F60.8 °F45 %29.80 in5.6 miNNE (30°)9.2 mphPartly Cloudy
8:00 PM6.0 miCalmScattered Clouds
8:00 PM82.4 °F62.6 °F51 %29.83 in5.6 miNNE (20°)8.1 mphPartly Cloudy
8:30 PM80.6 °F62.6 °F54 %29.83 in5.6 miNE (40°)5.8 mphPartly Cloudy
9:00 PM80.6 °F62.6 °F54 %29.83 in5.6 miENE (60°)5.8 mphPartly Cloudy
9:30 PM78.8 °F62.6 °F57 %29.86 in5.6 miEast (80°)5.8 mphPartly Cloudy
10:00 PM77.0 °F62.6 °F61 %29.86 in5.6 miEast (100°)5.8 mphPartly Cloudy
10:30 PM77.0 °F62.6 °F61 %29.86 in5.6 miESE (110°)5.8 mphPartly Cloudy
11:00 PM6.0 miCalmScattered Clouds
11:00 PM75.2 °F62.6 °F65 %29.86 in5.6 miESE (110°)4.6 mphPartly Cloudy
11:30 PM75.2 °F60.8 °F61 %29.86 in5.6 miSouth (170°)3.5 mphPartly Cloudy
Hourly data recorded from WAAA, located miles away from Hasanudin, Indonesia







STORIES FROM OUR PARTNERS